Frederick, MD

3:51 AM EST on February 20, 2018 (GMT -0500)
Frederick Municipal

Weather History for KFDK - January, 2014

Change the Weather History Date:

Sunday, January 5, 2014

  Actual Average (KHGR) Record (KHGR)
Temperature  
Mean Temperature 22 °F -  
Max Temperature 32 °F 39 °F 64 °F (1997)
Min Temperature 12 °F 25 °F 8 °F (2018)
Degree Days  
Heating Degree Days 43    
Moisture  
Dew Point 22 °F    
Average Humidity 99    
Maximum Humidity 100    
Minimum Humidity 92    
Precipitation  
Precipitation 0.05 in - - ()
Sea Level Pressure  
Sea Level Pressure 30.10 in    
Wind  
Wind Speed 1 mph (NNE)    
Max Wind Speed 6 mph    
Max Gust Speed -    
Visibility 6 miles    
Events Fog , Rain    
Averages and records for this station are not official NWS values.
T = Trace of Precipitation, MM = Missing Value Source: NWS Daily Summary

Daily Weather History Graph

Daily Weather History Graph

Search for Another Location

Airport or City:

Trip Planner

Search our weather history database for the weather conditions in past years. The results will help you decide how hot, cold, wet, or windy it might be!

Date:

Astronomy

Jan. 05, 2014 Rise Set
Actual Time 7:29 AM EST 5:00 PM EST
Civil Twilight 6:59 AM EST 5:30 PM EST
Nautical Twilight 6:26 AM EST 6:03 PM EST
Astronomical Twilight 5:53 AM EST 6:36 PM EST
Moon 10:11 AM EST (1/5) 10:24 PM EST (1/5)
Length of Visible Light 10h 30m
Length of Day
9h 30m
Waxing Crescent, 24% of the Moon is Illuminated
Jan 5
Waxing Crescent
Jan 7
First Quarter
Jan 15
Full
Jan 24
Last Quarter
Jan 30
New

Hourly Weather History & Observations

Time (EST) Temp. Windchill Dew Point Humidity Pressure Visibility Wind Dir Wind Speed Gust Speed Precip Events Conditions
12:10 AM 14.0 °F - 14.0 °F 100% 30.27 in 10.0 mi Calm Calm - N/A   Clear
12:30 AM 12.2 °F - 12.2 °F 100% 30.28 in 10.0 mi Calm Calm - N/A   Clear
12:50 AM 14.0 °F 6.5 °F 14.0 °F 100% 30.28 in 10.0 mi SE 4.6 mph - N/A   Clear
1:10 AM 15.8 °F 10.2 °F 15.8 °F 100% 30.27 in 10.0 mi SE 3.5 mph - N/A   Clear
1:30 AM 12.2 °F - 12.2 °F 100% 30.28 in 10.0 mi Calm Calm - N/A   Clear
1:50 AM 12.2 °F - 12.2 °F 100% 30.28 in 10.0 mi Calm Calm - N/A   Clear
2:10 AM 12.2 °F - 12.2 °F 100% 30.28 in 10.0 mi Calm Calm - N/A   Clear
2:30 AM 14.0 °F - 14.0 °F 100% 30.28 in 10.0 mi Calm Calm - N/A   Clear
2:50 AM 12.2 °F - 12.2 °F 100% 30.28 in 10.0 mi Calm Calm - N/A   Clear
3:10 AM 12.2 °F - 10.4 °F 92% 30.28 in 10.0 mi Calm Calm - N/A   Clear
3:30 AM 14.0 °F - 14.0 °F 100% 30.28 in 10.0 mi Calm Calm - N/A   Clear
3:50 AM 12.2 °F - 12.2 °F 100% 30.28 in 10.0 mi Calm Calm - N/A   Clear
4:10 AM 12.2 °F - 12.2 °F 100% 30.28 in 10.0 mi Calm Calm - N/A   Clear
4:30 AM 12.2 °F - 12.2 °F 100% 30.27 in 10.0 mi Calm Calm - N/A   Clear
4:50 AM 12.2 °F - 12.2 °F 100% 30.27 in 10.0 mi Calm Calm - N/A   Clear
5:10 AM 12.2 °F - 12.2 °F 100% 30.27 in 10.0 mi Calm Calm - N/A   Clear
5:30 AM 12.2 °F - 12.2 °F 100% 30.27 in 10.0 mi Calm Calm - N/A   Clear
5:40 AM 12.2 °F - 12.2 °F 100% 30.27 in 10.0 mi Calm Calm - N/A   Clear
6:45 AM 12.2 °F - 12.2 °F 100% 30.27 in 10.0 mi Calm Calm - N/A   Clear
8:00 AM 14.0 °F - 12.2 °F 93% 30.28 in 10.0 mi Calm Calm - N/A   Clear
8:55 AM 15.8 °F - 14.0 °F 93% 30.28 in 10.0 mi Calm Calm - N/A   Overcast
9:45 AM 19.4 °F 14.3 °F 17.6 °F 93% 30.27 in 10.0 mi North 3.5 mph - N/A   Overcast
10:45 AM 23.0 °F 17.0 °F 21.2 °F 93% 30.24 in - NNE 4.6 mph - N/A   Overcast
11:30 AM 23.0 °F 15.8 °F 21.2 °F 93% 30.20 in 5.0 mi NNE 5.8 mph - N/A   Overcast
11:55 AM 24.8 °F - 23.0 °F 93% 30.18 in 10.5 mi Calm Calm - N/A   Light Freezing Drizzle
12:50 PM 26.6 °F 22.6 °F 26.6 °F 100% 30.16 in 2.0 mi Variable 3.5 mph - N/A   Light Freezing Drizzle
1:50 PM 28.4 °F 24.6 °F 28.4 °F 100% 30.12 in 2.0 mi Variable 3.5 mph - N/A   Light Freezing Drizzle
2:55 PM 30.2 °F 25.4 °F 30.2 °F 100% 30.09 in 1.5 mi Variable 4.6 mph - N/A   Light Freezing Drizzle
3:50 PM 30.2 °F 24.3 °F 30.2 °F 100% 30.07 in 2.0 mi NNE 5.8 mph - N/A   Light Freezing Drizzle
4:45 PM 30.2 °F 24.3 °F 30.2 °F 100% 30.03 in 2.0 mi NNE 5.8 mph - N/A   Overcast
5:50 PM 32.0 °F 26.4 °F 32.0 °F 100% 29.99 in 3.0 mi North 5.8 mph - N/A   Overcast
6:59 PM 32.0 °F 27.5 °F 32.0 °F 100% 29.94 in 2.0 mi North 4.6 mph - N/A   Light Freezing Drizzle
7:55 PM 32.0 °F 28.7 °F 32.0 °F 100% 29.89 in 1.8 mi NNE 3.5 mph - 0.01 in   Light Drizzle
7:59 PM 32.0 °F 27.5 °F 32.0 °F 100% 29.89 in 1.0 mi NE 4.6 mph - N/A   Heavy Drizzle
8:15 PM 32.0 °F 28.7 °F 32.0 °F 100% 29.88 in 1.8 mi North 3.5 mph - 0.01 in   Drizzle
8:35 PM 32.0 °F - 32.0 °F 100% 29.87 in 1.5 mi Calm Calm - 0.02 in Rain Rain
8:55 PM 32.0 °F - 32.0 °F 100% 29.86 in 1.5 mi Calm Calm - 0.03 in Rain Rain
9:15 PM 32.0 °F - 32.0 °F 100% 29.84 in 1.8 mi Calm Calm - N/A   Overcast
9:35 PM 32.0 °F - 32.0 °F 100% 29.82 in 1.0 mi Calm Calm - N/A   Overcast
9:55 PM 32.0 °F - 32.0 °F 100% 29.81 in 0.8 mi Calm Calm - N/A   Light Drizzle
10:15 PM 32.0 °F - 32.0 °F 100% 29.79 in 1.0 mi Calm Calm - 0.01 in   Overcast
10:35 PM 32.0 °F - 32.0 °F 100% 29.77 in 0.8 mi Calm Calm - 0.01 in   Overcast
10:55 PM 32.0 °F - 32.0 °F 100% 29.76 in 0.8 mi Calm Calm - 0.01 in   Overcast
11:15 PM 32.0 °F - 32.0 °F 100% 29.74 in 0.5 mi Calm Calm - N/A Fog Fog
11:35 PM 32.0 °F - 32.0 °F 100% 29.71 in 0.8 mi Calm Calm - N/A   Overcast
11:55 PM 32.0 °F - 32.0 °F 100% 29.70 in 1.8 mi Calm Calm - N/A   Overcast